CZ-6A DEB, 54539

Orbit data source: Space-Track

CZ-6A DEB, 54539 is space debris in SSO originally from a launch on Fri, 11 Nov 2022 UTC launched from the Taiyaun Space Center, China (TSC). Debris objects in space refer to the collection of defunct objects orbiting the Earth. Examples of debris include non-operational satellites, rocket bodies, and fragments generated from explosions, collisions, or faulty payload assembly.

Loading next visibility...
Identifier
54539, 2022-151KP
Orbit
SSO
Country
Flag of CNCN / PRC
Related business
Manufacturer
SAST
Mission
Spacecraft
Bus & Motor
Unknown
Mass
Unknown
Launch date (UTC)
2022-11-11 (3 years ago)
Launch vehicle
Unknown
Launch site
Taiyaun Space Center, China (TSC)
Object type
Payload
Rocket body
Debris
Shape & HBR
Unknown shape, 0.3 m
Radar Cross Section
Medium (>0.1 m² and <1 m²)

Expand to show TLE details & history
Last TLE update: 5 hours ago

TLE from 5 hours ago
0 CZ-6A DEB
1 54539U 22151KP  26130.50654633  .00000120  00000-0  93089-4 0  9997
2 54539  98.8434 129.5970 0047613  74.5831 286.0592 14.09192817179344
Epoch: 2026-05-10T12:09Z
TLE epoch observation values (Epoch: 2026-05-10T12:09:25.602Z)
Latitude
-0.00002°
Longitude
78.93168°
Altitude
855.644 km
Speed
7.43 km/s
True Right ascension
08h 38m 23s
True Declination
0° 00' 00"
Sunlit
Object was in daylight at epoch
Visualization orbit readout
Latitude
Unknown
Longitude
Unknown
Altitude
Unknown
Speed
Unknown
Apparent Right ascension
Unknown
Apparent Declination
Unknown
Sunlit
N/A
Visualization observer readout
Local Sidereal Time
01:08:38
Azimuth
Unknown
Elevation
Unknown
Doppler factor
Unknown
Orbital elements
Apogee altitude
893.774 km
Perigee altitude
824.855 km
Semi-major axis
7,237.452 km
Eccentricity
0.00476
Inclination
98.8434°
RAAN
129.597°
Arg. of periapsis
74.5831°
True anomaly
285.53403°
Mean anomaly
286.0592°
Eccentric anomaly
285.7967°
Mean motion
3.52504 °/min
Orbital period
102.13 mins
BSTAR
0.000093089
Loading maneuver chart data...
Computing Atmospheric mass density...
Loading historical data...
Loading historical data...
Loading historical data...
Loading historical data...
Loading historical data...
Loading historical data...
Loading historical data...

Documentation

Showing up to 5 results
|